Jordan, MT

10:30 PM MST on February 20, 2017 (GMT -0700)
Jordan

Weather History for KJDN - April, 2013

Change the Weather History Date:

Saturday, April 13, 2013

  Actual Average Record
Temperature  
Mean Temperature 38 °F 43 °F  
Max Temperature 47 °F 57 °F 81 °F (1913)
Min Temperature 28 °F 30 °F 13 °F (1983)
Degree Days  
Heating Degree Days 27 22  
Month to date heating degree days 348 305  
Since 1 July heating degree days 6874 7407  
Cooling Degree Days 0 0  
Month to date cooling degree days 0 0  
Year to date cooling degree days 0 0  
Moisture  
Dew Point 31 °F    
Average Humidity 75    
Maximum Humidity 96    
Minimum Humidity 53    
Precipitation  
Precipitation 0.48 in 0.04 in 0.53 in (1986)
Month to date precipitation 0.95 0.36  
Year to date precipitation 2.09 1.36  
Snow  
Snow 0.00 in - - ()
Month to date snowfall 0.0  
Since 1 July snowfall 0.0  
Snow Depth 0.00 in    
Sea Level Pressure  
Sea Level Pressure 29.57 in    
Wind  
Wind Speed 11 mph (ESE)    
Max Wind Speed 22 mph    
Max Gust Speed 28 mph    
T = Trace of Precipitation, MM = Missing Value Source: NWS Daily Summary

Daily Weather History Graph

Daily Weather History Graph

Search for Another Location

Airport or City:

Trip Planner

Search our weather history database for the weather conditions in past years. The results will help you decide how hot, cold, wet, or windy it might be!

Date:

Astronomy

Apr. 13, 2013 Rise Set
Actual Time 6:22 AM MDT 7:54 PM MDT
Civil Twilight 5:50 AM MDT 8:26 PM MDT
Nautical Twilight 5:11 AM MDT 9:05 PM MDT
Astronomical Twilight 4:29 AM MDT 9:47 PM MDT
Moon 8:05 AM MDT (4/13) 11:33 PM MDT (4/13)
Length of Visible Light 14h 36m
Length of Day
13h 32m
Waxing Crescent, 11% of the Moon is Illuminated
Apr 13
Waxing Crescent
Apr 18
First Quarter
Apr 25
Full
May 2
Last Quarter
May 9
New

Hourly Weather History & Observations

Time (MDT) Temp. Windchill Dew Point Humidity Pressure Visibility Wind Dir Wind Speed Gust Speed Precip Events Conditions
12:48 AM 30.9 °F - 23.0 °F 72% 29.84 in - Calm Calm - N/A   Unknown
1:48 AM 28.9 °F 23.9 °F 23.0 °F 78% 29.78 in - ESE 4.6 mph - N/A   Unknown
2:48 AM 32.0 °F 28.7 °F 25.0 °F 75% 29.75 in - East 3.5 mph - N/A   Unknown
3:48 AM 33.1 °F 27.7 °F 26.1 °F 75% 29.72 in - East 5.8 mph - N/A   Unknown
4:48 AM 33.1 °F 26.9 °F 27.0 °F 78% 29.68 in - East 6.9 mph - N/A   Unknown
5:48 AM 34.0 °F 25.0 °F 27.0 °F 75% 29.62 in - SE 12.7 mph - N/A   Unknown
6:48 AM 34.0 °F 25.0 °F 28.0 °F 79% 29.60 in - ESE 12.7 mph - N/A   Unknown
7:48 AM 35.1 °F 25.2 °F 28.0 °F 76% 29.58 in - SE 16.1 mph 21.9 mph N/A   Unknown
8:48 AM 36.0 °F 29.0 °F 28.0 °F 73% 29.57 in - ESE 9.2 mph - N/A   Unknown
9:48 AM 37.9 °F 29.2 °F 28.9 °F 70% 29.54 in - SSE 15.0 mph 21.9 mph N/A   Unknown
10:48 AM 41.0 °F 32.8 °F 30.0 °F 65% 29.52 in - SSE 16.1 mph - N/A   Unknown
11:48 AM 43.0 °F 34.8 °F 30.9 °F 62% 29.49 in - SE 18.4 mph - N/A   Unknown
12:48 PM 46.0 °F 39.6 °F 30.9 °F 56% 29.48 in - SE 15.0 mph 27.6 mph N/A   Unknown
1:48 PM 46.0 °F 38.8 °F 30.9 °F 56% 29.46 in - SE 18.4 mph - N/A   Unknown
2:48 PM 46.0 °F 39.6 °F 35.1 °F 66% 29.47 in - SE 15.0 mph 19.6 mph N/A   Unknown
3:48 PM 45.0 °F 41.2 °F 37.0 °F 74% 29.48 in - SSE 6.9 mph - 0.03 in   Unknown
4:48 PM 43.0 °F 38.8 °F 37.9 °F 82% 29.49 in - WNW 6.9 mph - 0.02 in   Unknown
5:48 PM 42.1 °F 38.4 °F 39.0 °F 89% 29.51 in - WNW 5.8 mph - 0.02 in   Unknown
6:48 PM 39.9 °F 33.4 °F 37.9 °F 93% 29.52 in - NW 10.4 mph - 0.07 in   Unknown
7:48 PM 39.9 °F 33.4 °F 37.0 °F 89% 29.51 in - NE 10.4 mph - 0.06 in   Unknown
8:48 PM 39.9 °F 36.7 °F 37.9 °F 93% 29.54 in - North 4.6 mph - 0.02 in   Unknown
9:48 PM 39.0 °F 30.3 °F 35.1 °F 86% 29.56 in - ESE 16.1 mph 23.0 mph 0.06 in   Unknown
9:52 PM 37.4 °F 28.2 °F 35.6 °F 93% 29.50 in - ESE 16.1 mph - 0.01 in   Unknown
10:48 PM 35.1 °F 26.4 °F 33.1 °F 92% 29.58 in - ESE 12.7 mph - 0.05 in   Unknown
11:48 PM 33.1 °F 26.1 °F 32.0 °F 96% 29.58 in - ENE 8.1 mph - 0.07 in   Unknown